Time,TemperatureF,DewpointF,PressureIn,WindDirection,WindDirectionDegrees,WindSpeedMPH,WindSpeedGustMPH,Humidity,HourlyPrecipIn,Conditions,Clouds,dailyrainin,SoftwareType,DateUTC
2013-03-06 00:02:00,56.0,0.0,30.13,WNW,282,3.0,9.0,0,0.00,,,0.00,HR_IXPWINDi_r2_v1.2.,2013-03-06 08:02:00,
2013-03-06 00:07:00,56.0,0.0,30.14,WSW,258,4.0,8.0,0,0.00,,,0.00,HR_IXPWINDi_r2_v1.2.,2013-03-06 08:07:00,
2013-03-06 00:12:00,56.0,0.0,30.14,WNW,284,8.0,8.0,0,0.00,,,0.00,HR_IXPWINDi_r2_v1.2.,2013-03-06 08:12:00,
2013-03-06 00:17:00,56.0,0.0,30.14,West,259,8.0,9.0,0,0.00,,,0.00,HR_IXPWINDi_r2_v1.2.,2013-03-06 08:17:00,
2013-03-06 00:22:00,56.1,0.0,30.14,WNW,300,3.0,9.0,0,0.00,,,0.00,HR_IXPWINDi_r2_v1.2.,2013-03-06 08:22:00,
2013-03-06 00:28:00,56.0,0.0,30.15,WNW,285,4.0,9.0,0,0.00,,,0.00,HR_IXPWINDi_r2_v1.2.,2013-03-06 08:28:00,
2013-03-06 00:33:00,56.0,0.0,30.15,West,268,3.0,10.0,0,0.00,,,0.00,HR_IXPWINDi_r2_v1.2.,2013-03-06 08:33:00,
2013-03-06 00:38:00,55.8,0.0,30.15,West,262,4.0,14.0,0,0.00,,,0.00,HR_IXPWINDi_r2_v1.2.,2013-03-06 08:38:00,
2013-03-06 00:43:00,55.8,0.0,30.15,WNW,283,3.0,14.0,0,0.00,,,0.00,HR_IXPWINDi_r2_v1.2.,2013-03-06 08:43:00,
2013-03-06 00:49:00,55.8,0.0,30.15,West,281,4.0,10.0,0,0.00,,,0.00,HR_IXPWINDi_r2_v1.2.,2013-03-06 08:49:00,
2013-03-06 00:54:00,55.8,0.0,30.15,WNW,282,7.0,10.0,0,0.00,,,0.00,HR_IXPWINDi_r2_v1.2.,2013-03-06 08:54:00,
2013-03-06 00:59:00,55.7,0.0,30.15,West,281,2.0,10.0,0,0.00,,,0.00,HR_IXPWINDi_r2_v1.2.,2013-03-06 08:59:00,
2013-03-06 01:04:00,55.7,0.0,30.14,West,281,3.0,10.0,0,0.00,,,0.00,HR_IXPWINDi_r2_v1.2.,2013-03-06 09:04:00,
2013-03-06 01:09:00,55.6,0.0,30.14,West,278,6.0,10.0,0,0.00,,,0.00,HR_IXPWINDi_r2_v1.2.,2013-03-06 09:09:00,
2013-03-06 01:15:00,55.6,0.0,30.14,WNW,287,5.0,9.0,0,0.00,,,0.00,HR_IXPWINDi_r2_v1.2.,2013-03-06 09:15:00,
2013-03-06 01:20:00,55.6,0.0,30.15,West,281,3.0,9.0,0,0.00,,,0.00,HR_IXPWINDi_r2_v1.2.,2013-03-06 09:20:00,
2013-03-06 01:25:00,55.5,0.0,30.14,WNW,284,5.0,9.0,0,0.00,,,0.00,HR_IXPWINDi_r2_v1.2.,2013-03-06 09:25:00,
2013-03-06 01:30:00,55.4,0.0,30.15,WNW,298,5.0,10.0,0,0.00,,,0.00,HR_IXPWINDi_r2_v1.2.,2013-03-06 09:30:00,
2013-03-06 01:36:00,55.5,0.0,30.15,WNW,302,7.0,10.0,0,0.00,,,0.00,HR_IXPWINDi_r2_v1.2.,2013-03-06 09:36:00,
2013-03-06 01:41:00,55.4,0.0,30.15,West,277,10.0,11.0,0,0.00,,,0.00,HR_IXPWINDi_r2_v1.2.,2013-03-06 09:41:00,
2013-03-06 01:46:00,55.3,0.0,30.14,WNW,291,8.0,11.0,0,0.00,,,0.00,HR_IXPWINDi_r2_v1.2.,2013-03-06 09:46:00,
2013-03-06 01:51:00,55.3,0.0,30.15,WNW,288,5.0,11.0,0,0.00,,,0.00,HR_IXPWINDi_r2_v1.2.,2013-03-06 09:51:00,
2013-03-06 01:56:00,55.2,0.0,30.14,WNW,297,5.0,11.0,0,0.00,,,0.00,HR_IXPWINDi_r2_v1.2.,2013-03-06 09:56:00,
2013-03-06 02:02:00,55.2,0.0,30.14,WNW,286,6.0,10.0,0,0.00,,,0.00,HR_IXPWINDi_r2_v1.2.,2013-03-06 10:02:00,
2013-03-06 02:07:00,55.1,0.0,30.13,WNW,290,3.0,9.0,0,0.00,,,0.00,HR_IXPWINDi_r2_v1.2.,2013-03-06 10:07:00,
2013-03-06 02:12:00,55.0,0.0,30.13,West,271,4.0,9.0,0,0.00,,,0.00,HR_IXPWINDi_r2_v1.2.,2013-03-06 10:12:00,
2013-03-06 02:17:00,55.0,0.0,30.13,West,277,3.0,8.0,0,0.00,,,0.00,HR_IXPWINDi_r2_v1.2.,2013-03-06 10:17:00,
2013-03-06 02:22:00,54.9,0.0,30.13,West,273,3.0,7.0,0,0.00,,,0.00,HR_IXPWINDi_r2_v1.2.,2013-03-06 10:22:00,
2013-03-06 02:27:00,55.0,0.0,30.13,WNW,282,4.0,7.0,0,0.00,,,0.00,HR_IXPWINDi_r2_v1.2.,2013-03-06 10:27:00,
2013-03-06 02:32:00,54.9,0.0,30.12,WNW,302,3.0,6.0,0,0.00,,,0.00,HR_IXPWINDi_r2_v1.2.,2013-03-06 10:32:00,
2013-03-06 02:38:00,55.0,0.0,30.12,WNW,284,1.0,6.0,0,0.00,,,0.00,HR_IXPWINDi_r2_v1.2.,2013-03-06 10:38:00,
2013-03-06 02:43:00,55.0,0.0,30.12,WNW,299,4.0,6.0,0,0.00,,,0.00,HR_IXPWINDi_r2_v1.2.,2013-03-06 10:43:00,
2013-03-06 02:48:00,55.0,0.0,30.12,NW,312,6.0,7.0,0,0.00,,,0.00,HR_IXPWINDi_r2_v1.2.,2013-03-06 10:48:00,
2013-03-06 02:53:00,55.0,0.0,30.12,WNW,291,0.0,7.0,0,0.00,,,0.00,HR_IXPWINDi_r2_v1.2.,2013-03-06 10:53:00,
2013-03-06 02:58:00,55.0,0.0,30.13,WNW,288,4.0,9.0,0,0.00,,,0.00,HR_IXPWINDi_r2_v1.2.,2013-03-06 10:58:00,
2013-03-06 03:04:00,55.0,0.0,30.13,NW,309,6.0,9.0,0,0.00,,,0.00,HR_IXPWINDi_r2_v1.2.,2013-03-06 11:04:00,
2013-03-06 03:09:00,55.1,0.0,30.13,NW,308,5.0,9.0,0,0.00,,,0.00,HR_IXPWINDi_r2_v1.2.,2013-03-06 11:09:00,
2013-03-06 03:14:00,55.0,0.0,30.13,NW,311,4.0,9.0,0,0.00,,,0.00,HR_IXPWINDi_r2_v1.2.,2013-03-06 11:14:00,
2013-03-06 03:19:00,54.9,0.0,30.13,WNW,295,4.0,9.0,0,0.00,,,0.00,HR_IXPWINDi_r2_v1.2.,2013-03-06 11:19:00,
2013-03-06 03:25:00,54.9,0.0,30.13,WNW,296,1.0,9.0,0,0.00,,,0.00,HR_IXPWINDi_r2_v1.2.,2013-03-06 11:25:00,
2013-03-06 03:30:00,54.9,0.0,30.13,WNW,296,4.0,8.0,0,0.00,,,0.00,HR_IXPWINDi_r2_v1.2.,2013-03-06 11:30:00,
2013-03-06 03:35:00,54.8,0.0,30.13,WNW,298,5.0,7.0,0,0.00,,,0.00,HR_IXPWINDi_r2_v1.2.,2013-03-06 11:35:00,
2013-03-06 03:40:00,54.8,0.0,30.13,WNW,288,5.0,6.0,0,0.00,,,0.00,HR_IXPWINDi_r2_v1.2.,2013-03-06 11:40:00,
2013-03-06 03:46:00,54.8,0.0,30.13,WNW,296,4.0,8.0,0,0.00,,,0.00,HR_IXPWINDi_r2_v1.2.,2013-03-06 11:46:00,
2013-03-06 03:51:00,54.8,0.0,30.13,NW,306,4.0,8.0,0,0.00,,,0.00,HR_IXPWINDi_r2_v1.2.,2013-03-06 11:51:00,
2013-03-06 03:56:00,54.8,0.0,30.13,WNW,300,3.0,6.0,0,0.00,,,0.00,HR_IXPWINDi_r2_v1.2.,2013-03-06 11:56:00,
2013-03-06 04:01:00,54.6,0.0,30.13,WNW,300,3.0,6.0,0,0.00,,,0.00,HR_IXPWINDi_r2_v1.2.,2013-03-06 12:01:00,
2013-03-06 04:06:00,54.6,0.0,30.13,WNW,299,1.0,6.0,0,0.00,,,0.00,HR_IXPWINDi_r2_v1.2.,2013-03-06 12:06:00,
2013-03-06 04:11:00,54.6,0.0,30.12,WNW,299,3.0,5.0,0,0.00,,,0.00,HR_IXPWINDi_r2_v1.2.,2013-03-06 12:11:00,
2013-03-06 04:17:00,54.6,0.0,30.12,WNW,299,1.0,4.0,0,0.00,,,0.00,HR_IXPWINDi_r2_v1.2.,2013-03-06 12:17:00,
2013-03-06 04:22:00,54.6,0.0,30.12,WNW,299,1.0,4.0,0,0.00,,,0.00,HR_IXPWINDi_r2_v1.2.,2013-03-06 12:22:00,
2013-03-06 04:27:00,54.6,0.0,30.12,WNW,299,0.0,4.0,0,0.00,,,0.00,HR_IXPWINDi_r2_v1.2.,2013-03-06 12:27:00,
2013-03-06 04:32:00,54.5,0.0,30.12,WNW,299,0.0,4.0,0,0.00,,,0.00,HR_IXPWINDi_r2_v1.2.,2013-03-06 12:32:00,
2013-03-06 04:38:00,54.4,0.0,30.12,WNW,299,2.0,3.0,0,0.00,,,0.00,HR_IXPWINDi_r2_v1.2.,2013-03-06 12:38:00,
2013-03-06 04:43:00,54.3,0.0,30.13,WNW,299,2.0,3.0,0,0.00,,,0.00,HR_IXPWINDi_r2_v1.2.,2013-03-06 12:43:00,
2013-03-06 04:48:00,54.4,0.0,30.12,WNW,299,4.0,5.0,0,0.00,,,0.00,HR_IXPWINDi_r2_v1.2.,2013-03-06 12:48:00,
2013-03-06 04:53:00,54.4,0.0,30.13,WNW,300,3.0,5.0,0,0.00,,,0.00,HR_IXPWINDi_r2_v1.2.,2013-03-06 12:53:00,
2013-03-06 04:59:00,54.5,0.0,30.13,WNW,297,4.0,6.0,0,0.00,,,0.00,HR_IXPWINDi_r2_v1.2.,2013-03-06 12:59:00,
2013-03-06 05:04:00,54.6,0.0,30.13,WNW,298,4.0,6.0,0,0.00,,,0.00,HR_IXPWINDi_r2_v1.2.,2013-03-06 13:04:00,
2013-03-06 05:09:00,54.6,0.0,30.14,WNW,296,5.0,5.0,0,0.00,,,0.00,HR_IXPWINDi_r2_v1.2.,2013-03-06 13:09:00,
2013-03-06 05:14:00,54.7,0.0,30.14,WNW,296,4.0,6.0,0,0.00,,,0.00,HR_IXPWINDi_r2_v1.2.,2013-03-06 13:14:00,
2013-03-06 05:19:00,54.8,0.0,30.14,WNW,295,4.0,7.0,0,0.00,,,0.00,HR_IXPWINDi_r2_v1.2.,2013-03-06 13:19:00,
2013-03-06 05:24:00,54.8,0.0,30.14,WNW,290,0.0,7.0,0,0.00,,,0.00,HR_IXPWINDi_r2_v1.2.,2013-03-06 13:24:00,
2013-03-06 05:29:00,54.8,0.0,30.14,WNW,293,4.0,7.0,0,0.00,,,0.00,HR_IXPWINDi_r2_v1.2.,2013-03-06 13:29:00,
2013-03-06 05:35:00,54.8,0.0,30.14,WNW,294,2.0,7.0,0,0.00,,,0.00,HR_IXPWINDi_r2_v1.2.,2013-03-06 13:35:00,
2013-03-06 05:40:00,54.9,0.0,30.14,NW,321,3.0,7.0,0,0.00,,,0.00,HR_IXPWINDi_r2_v1.2.,2013-03-06 13:40:00,
2013-03-06 05:45:00,54.9,0.0,30.14,WNW,299,2.0,8.0,0,0.00,,,0.00,HR_IXPWINDi_r2_v1.2.,2013-03-06 13:45:00,
2013-03-06 05:50:00,54.9,0.0,30.15,WNW,296,8.0,8.0,0,0.00,,,0.00,HR_IXPWINDi_r2_v1.2.,2013-03-06 13:50:00,
2013-03-06 05:55:00,55.0,0.0,30.15,NW,313,5.0,8.0,0,0.00,,,0.00,HR_IXPWINDi_r2_v1.2.,2013-03-06 13:55:00,
2013-03-06 06:00:00,55.0,0.0,30.15,NW,311,7.0,8.0,0,0.00,,,0.00,HR_IXPWINDi_r2_v1.2.,2013-03-06 14:00:00,
2013-03-06 06:06:00,55.0,0.0,30.15,NW,316,6.0,10.0,0,0.00,,,0.00,HR_IXPWINDi_r2_v1.2.,2013-03-06 14:06:00,
2013-03-06 06:11:00,55.0,0.0,30.15,WNW,302,2.0,10.0,0,0.00,,,0.00,HR_IXPWINDi_r2_v1.2.,2013-03-06 14:11:00,
2013-03-06 06:16:00,55.1,0.0,30.15,NW,308,4.0,7.0,0,0.00,,,0.00,HR_IXPWINDi_r2_v1.2.,2013-03-06 14:16:00,
2013-03-06 06:21:00,55.0,0.0,30.15,NW,323,5.0,8.0,0,0.00,,,0.00,HR_IXPWINDi_r2_v1.2.,2013-03-06 14:21:00,
2013-03-06 06:27:00,55.0,0.0,30.15,NW,320,2.0,8.0,0,0.00,,,0.00,HR_IXPWINDi_r2_v1.2.,2013-03-06 14:27:00,
2013-03-06 06:32:00,55.0,0.0,30.15,NW,317,3.0,9.0,0,0.00,,,0.00,HR_IXPWINDi_r2_v1.2.,2013-03-06 14:32:00,
2013-03-06 06:37:00,55.0,0.0,30.15,NW,315,6.0,9.0,0,0.00,,,0.00,HR_IXPWINDi_r2_v1.2.,2013-03-06 14:37:00,
2013-03-06 06:42:00,55.1,0.0,30.15,NW,315,4.0,7.0,0,0.00,,,0.00,HR_IXPWINDi_r2_v1.2.,2013-03-06 14:42:00,
2013-03-06 06:47:00,55.1,0.0,30.15,NW,315,3.0,6.0,0,0.00,,,0.00,HR_IXPWINDi_r2_v1.2.,2013-03-06 14:47:00,
2013-03-06 06:53:00,55.1,0.0,30.15,NW,317,5.0,7.0,0,0.00,,,0.00,HR_IXPWINDi_r2_v1.2.,2013-03-06 14:53:00,
2013-03-06 06:58:00,55.0,0.0,30.15,NW,319,3.0,7.0,0,0.00,,,0.00,HR_IXPWINDi_r2_v1.2.,2013-03-06 14:58:00,
2013-03-06 07:03:00,55.2,0.0,30.15,NW,324,2.0,6.0,0,0.00,,,0.00,HR_IXPWINDi_r2_v1.2.,2013-03-06 15:03:00,
2013-03-06 07:08:00,55.2,0.0,30.15,NW,326,2.0,5.0,0,0.00,,,0.00,HR_IXPWINDi_r2_v1.2.,2013-03-06 15:08:00,
2013-03-06 07:13:00,55.2,0.0,30.15,NW,326,1.0,5.0,0,0.00,,,0.00,HR_IXPWINDi_r2_v1.2.,2013-03-06 15:13:00,
2013-03-06 07:18:00,55.1,0.0,30.15,NW,326,3.0,5.0,0,0.00,,,0.00,HR_IXPWINDi_r2_v1.2.,2013-03-06 15:18:00,
2013-03-06 07:23:00,55.3,0.0,30.15,NW,326,2.0,6.0,0,0.00,,,0.00,HR_IXPWINDi_r2_v1.2.,2013-03-06 15:23:00,
2013-03-06 07:29:00,55.7,0.0,30.15,NW,325,3.0,6.0,0,0.00,,,0.00,HR_IXPWINDi_r2_v1.2.,2013-03-06 15:29:00,
2013-03-06 07:34:00,55.9,0.0,30.15,NW,325,2.0,5.0,0,0.00,,,0.00,HR_IXPWINDi_r2_v1.2.,2013-03-06 15:34:00,
2013-03-06 07:39:00,55.9,0.0,30.15,NW,325,3.0,5.0,0,0.00,,,0.00,HR_IXPWINDi_r2_v1.2.,2013-03-06 15:39:00,
2013-03-06 07:44:00,55.9,0.0,30.15,NW,325,1.0,5.0,0,0.00,,,0.00,HR_IXPWINDi_r2_v1.2.,2013-03-06 15:44:00,
2013-03-06 07:50:00,56.4,0.0,30.15,NW,326,1.0,5.0,0,0.00,,,0.00,HR_IXPWINDi_r2_v1.2.,2013-03-06 15:50:00,
2013-03-06 07:55:00,56.7,0.0,30.15,NNW,333,2.0,5.0,0,0.00,,,0.00,HR_IXPWINDi_r2_v1.2.,2013-03-06 15:55:00,
2013-03-06 08:00:00,56.7,0.0,30.15,NNW,332,4.0,5.0,0,0.00,,,0.00,HR_IXPWINDi_r2_v1.2.,2013-03-06 16:00:00,
2013-03-06 08:05:00,56.6,0.0,30.15,NNW,332,0.0,5.0,0,0.00,,,0.00,HR_IXPWINDi_r2_v1.2.,2013-03-06 16:05:00,
2013-03-06 08:11:00,56.5,0.0,30.15,NNW,332,2.0,5.0,0,0.00,,,0.00,HR_IXPWINDi_r2_v1.2.,2013-03-06 16:11:00,
2013-03-06 08:16:00,56.9,0.0,30.15,NNW,334,0.0,5.0,0,0.00,,,0.00,HR_IXPWINDi_r2_v1.2.,2013-03-06 16:16:00,
2013-03-06 08:21:00,57.9,0.0,30.15,NNW,344,1.0,5.0,0,0.00,,,0.00,HR_IXPWINDi_r2_v1.2.,2013-03-06 16:21:00,
2013-03-06 08:26:00,57.9,0.0,30.15,NNW,344,0.0,5.0,0,0.00,,,0.00,HR_IXPWINDi_r2_v1.2.,2013-03-06 16:26:00,
2013-03-06 08:31:00,57.7,0.0,30.15,NNW,344,0.0,3.0,0,0.00,,,0.00,HR_IXPWINDi_r2_v1.2.,2013-03-06 16:31:00,
2013-03-06 08:37:00,57.3,0.0,30.15,NNW,347,2.0,3.0,0,0.00,,,0.00,HR_IXPWINDi_r2_v1.2.,2013-03-06 16:37:00,
2013-03-06 08:42:00,57.1,0.0,30.16,North,350,0.0,4.0,0,0.00,,,0.00,HR_IXPWINDi_r2_v1.2.,2013-03-06 16:42:00,
2013-03-06 08:47:00,57.3,0.0,30.16,North,350,0.0,4.0,0,0.00,,,0.00,HR_IXPWINDi_r2_v1.2.,2013-03-06 16:47:00,
2013-03-06 08:52:00,58.6,0.0,30.15,North,350,1.0,3.0,0,0.00,,,0.00,HR_IXPWINDi_r2_v1.2.,2013-03-06 16:52:00,
2013-03-06 08:58:00,59.1,0.0,30.15,North,350,0.0,3.0,0,0.00,,,0.00,HR_IXPWINDi_r2_v1.2.,2013-03-06 16:58:00,
2013-03-06 09:03:00,58.9,-41.2,30.16,North,350,0.0,3.0,1,0.00,,,0.00,HR_IXPWINDi_r2_v1.2.,2013-03-06 17:03:00,
2013-03-06 09:08:00,58.5,0.0,30.16,NW,306,1.0,6.0,0,0.00,,,0.00,HR_IXPWINDi_r2_v1.2.,2013-03-06 17:08:00,
2013-03-06 09:13:00,58.1,0.0,30.16,WNW,296,5.0,7.0,0,0.00,,,0.00,HR_IXPWINDi_r2_v1.2.,2013-03-06 17:13:00,
2013-03-06 09:19:00,58.1,0.0,30.16,WNW,299,5.0,8.0,0,0.00,,,0.00,HR_IXPWINDi_r2_v1.2.,2013-03-06 17:19:00,
2013-03-06 09:24:00,58.2,0.0,30.16,WNW,287,0.0,8.0,0,0.00,,,0.00,HR_IXPWINDi_r2_v1.2.,2013-03-06 17:24:00,
2013-03-06 09:29:00,58.7,0.0,30.16,WNW,286,5.0,6.0,0,0.00,,,0.00,HR_IXPWINDi_r2_v1.2.,2013-03-06 17:29:00,
2013-03-06 09:35:00,59.0,0.0,30.16,West,275,1.0,7.0,0,0.00,,,0.00,HR_IXPWINDi_r2_v1.2.,2013-03-06 17:35:00,
2013-03-06 09:40:00,59.0,-29.0,30.16,NW,305,1.0,7.0,2,0.00,,,0.00,HR_IXPWINDi_r2_v1.2.,2013-03-06 17:40:00,
2013-03-06 09:45:00,59.3,-41.0,30.16,West,269,3.0,7.0,1,0.00,,,0.00,HR_IXPWINDi_r2_v1.2.,2013-03-06 17:45:00,
2013-03-06 09:51:00,59.3,-41.0,30.16,WNW,290,2.0,8.0,1,0.00,,,0.00,HR_IXPWINDi_r2_v1.2.,2013-03-06 17:51:00,
2013-03-06 09:56:00,59.2,0.0,30.16,WNW,296,1.0,8.0,0,0.00,,,0.00,HR_IXPWINDi_r2_v1.2.,2013-03-06 17:56:00,
2013-03-06 10:01:00,59.8,-28.5,30.16,WNW,286,4.0,8.0,2,0.00,,,0.00,HR_IXPWINDi_r2_v1.2.,2013-03-06 18:01:00,
2013-03-06 10:06:00,59.5,-40.9,30.16,WNW,296,8.0,9.0,1,0.00,,,0.00,HR_IXPWINDi_r2_v1.2.,2013-03-06 18:06:00,
2013-03-06 10:11:00,59.0,0.0,30.16,WNW,303,3.0,9.0,0,0.00,,,0.00,HR_IXPWINDi_r2_v1.2.,2013-03-06 18:11:00,
2013-03-06 10:17:00,60.0,-40.6,30.16,WNW,295,5.0,9.0,1,0.00,,,0.00,HR_IXPWINDi_r2_v1.2.,2013-03-06 18:17:00,
2013-03-06 10:22:00,59.8,-28.5,30.16,West,278,9.0,11.0,2,0.00,,,0.00,HR_IXPWINDi_r2_v1.2.,2013-03-06 18:22:00,
2013-03-06 10:27:00,58.8,-21.6,30.15,West,277,5.0,11.0,3,0.00,,,0.00,HR_IXPWINDi_r2_v1.2.,2013-03-06 18:27:00,
2013-03-06 10:32:00,59.2,0.0,30.15,West,281,8.0,11.0,0,0.00,,,0.00,HR_IXPWINDi_r2_v1.2.,2013-03-06 18:32:00,
2013-03-06 10:38:00,60.1,0.0,30.16,West,276,1.0,11.0,0,0.00,,,0.00,HR_IXPWINDi_r2_v1.2.,2013-03-06 18:38:00,
2013-03-06 10:43:00,59.5,-21.2,30.15,WNW,288,6.0,11.0,3,0.00,,,0.00,HR_IXPWINDi_r2_v1.2.,2013-03-06 18:43:00,
2013-03-06 10:48:00,59.8,0.0,30.15,WNW,302,6.0,11.0,0,0.00,,,0.00,HR_IXPWINDi_r2_v1.2.,2013-03-06 18:48:00,
2013-03-06 10:53:00,59.9,0.0,30.15,WNW,302,4.0,11.0,0,0.00,,,0.00,HR_IXPWINDi_r2_v1.2.,2013-03-06 18:53:00,
2013-03-06 10:58:00,60.2,0.0,30.15,NW,309,3.0,9.0,0,0.00,,,0.00,HR_IXPWINDi_r2_v1.2.,2013-03-06 18:58:00,
2013-03-06 11:04:00,59.6,-40.8,30.15,NW,317,5.0,11.0,1,0.00,,,0.00,HR_IXPWINDi_r2_v1.2.,2013-03-06 19:04:00,
2013-03-06 11:09:00,59.4,0.0,30.14,WNW,284,8.0,11.0,0,0.00,,,0.00,HR_IXPWINDi_r2_v1.2.,2013-03-06 19:09:00,
2013-03-06 11:14:00,59.5,0.0,30.14,West,266,1.0,10.0,0,0.00,,,0.00,HR_IXPWINDi_r2_v1.2.,2013-03-06 19:14:00,
2013-03-06 11:19:00,59.5,-28.7,30.14,WNW,296,8.0,10.0,2,0.00,,,0.00,HR_IXPWINDi_r2_v1.2.,2013-03-06 19:19:00,
2013-03-06 11:24:00,59.4,0.0,30.13,WNW,299,3.0,10.0,0,0.00,,,0.00,HR_IXPWINDi_r2_v1.2.,2013-03-06 19:24:00,
2013-03-06 11:29:00,59.6,-21.1,30.13,WNW,289,3.0,10.0,3,0.00,,,0.00,HR_IXPWINDi_r2_v1.2.,2013-03-06 19:29:00,
2013-03-06 11:34:00,59.8,-11.0,30.12,WNW,288,0.0,10.0,5,0.00,,,0.00,HR_IXPWINDi_r2_v1.2.,2013-03-06 19:34:00,
2013-03-06 11:40:00,59.9,-10.9,30.12,WNW,294,4.0,8.0,5,0.00,,,0.00,HR_IXPWINDi_r2_v1.2.,2013-03-06 19:40:00,
2013-03-06 11:45:00,60.6,1.5,30.12,West,274,5.0,8.0,9,0.00,,,0.00,HR_IXPWINDi_r2_v1.2.,2013-03-06 19:45:00,
2013-03-06 11:50:00,60.7,-3.5,30.12,WNW,293,6.0,9.0,7,0.00,,,0.00,HR_IXPWINDi_r2_v1.2.,2013-03-06 19:50:00,
2013-03-06 11:55:00,60.6,-0.8,30.12,WNW,289,5.0,11.0,8,0.00,,,0.00,HR_IXPWINDi_r2_v1.2.,2013-03-06 19:55:00,
2013-03-06 12:00:00,60.2,-15.1,30.11,WNW,290,10.0,11.0,4,0.00,,,0.00,HR_IXPWINDi_r2_v1.2.,2013-03-06 20:00:00,
2013-03-06 12:05:00,60.2,-10.7,30.11,West,280,7.0,11.0,5,0.00,,,0.00,HR_IXPWINDi_r2_v1.2.,2013-03-06 20:05:00,
2013-03-06 12:11:00,60.1,-10.8,30.11,WNW,294,10.0,13.0,5,0.00,,,0.00,HR_IXPWINDi_r2_v1.2.,2013-03-06 20:11:00,
2013-03-06 12:16:00,60.3,-28.2,30.11,WNW,298,5.0,13.0,2,0.00,,,0.00,HR_IXPWINDi_r2_v1.2.,2013-03-06 20:16:00,
2013-03-06 12:21:00,60.7,-20.3,30.11,WNW,286,10.0,12.0,3,0.00,,,0.00,HR_IXPWINDi_r2_v1.2.,2013-03-06 20:21:00,
2013-03-06 12:26:00,60.5,-14.9,30.11,WNW,284,7.0,14.0,4,0.00,,,0.00,HR_IXPWINDi_r2_v1.2.,2013-03-06 20:26:00,
2013-03-06 12:32:00,59.9,-15.3,30.10,WNW,292,9.0,16.0,4,0.00,,,0.00,HR_IXPWINDi_r2_v1.2.,2013-03-06 20:32:00,
2013-03-06 12:37:00,60.0,-20.8,30.10,NW,313,7.0,16.0,3,0.00,,,0.00,HR_IXPWINDi_r2_v1.2.,2013-03-06 20:37:00,
2013-03-06 12:42:00,60.1,0.0,30.10,WNW,300,9.0,13.0,0,0.00,,,0.00,HR_IXPWINDi_r2_v1.2.,2013-03-06 20:42:00,
2013-03-06 12:47:00,60.2,-15.1,30.10,West,265,10.0,13.0,4,0.00,,,0.00,HR_IXPWINDi_r2_v1.2.,2013-03-06 20:47:00,
2013-03-06 12:52:00,60.0,-15.3,30.10,WNW,301,9.0,14.0,4,0.00,,,0.00,HR_IXPWINDi_r2_v1.2.,2013-03-06 20:52:00,
2013-03-06 12:57:00,60.0,-20.8,30.09,WNW,284,8.0,14.0,3,0.00,,,0.00,HR_IXPWINDi_r2_v1.2.,2013-03-06 20:57:00,
2013-03-06 13:03:00,60.0,-40.6,30.09,West,277,8.0,15.0,1,0.00,,,0.00,HR_IXPWINDi_r2_v1.2.,2013-03-06 21:03:00,
2013-03-06 13:08:00,59.9,-28.4,30.09,NW,325,11.0,15.0,2,0.00,,,0.00,HR_IXPWINDi_r2_v1.2.,2013-03-06 21:08:00,
2013-03-06 13:13:00,59.7,0.0,30.09,West,281,11.0,17.0,0,0.00,,,0.00,HR_IXPWINDi_r2_v1.2.,2013-03-06 21:13:00,
2013-03-06 13:18:00,59.7,-28.6,30.09,NNW,332,5.0,17.0,2,0.00,,,0.00,HR_IXPWINDi_r2_v1.2.,2013-03-06 21:18:00,
2013-03-06 13:24:00,59.7,-21.0,30.09,WNW,290,12.0,16.0,3,0.00,,,0.00,HR_IXPWINDi_r2_v1.2.,2013-03-06 21:24:00,
2013-03-06 13:29:00,59.9,-28.4,30.09,NW,323,12.0,16.0,2,0.00,,,0.00,HR_IXPWINDi_r2_v1.2.,2013-03-06 21:29:00,
2013-03-06 13:34:00,59.7,-40.8,30.09,NW,304,5.0,16.0,1,0.00,,,0.00,HR_IXPWINDi_r2_v1.2.,2013-03-06 21:34:00,
2013-03-06 13:39:00,59.6,0.0,30.09,West,273,8.0,17.0,0,0.00,,,0.00,HR_IXPWINDi_r2_v1.2.,2013-03-06 21:39:00,
2013-03-06 13:44:00,59.6,0.0,30.08,West,272,11.0,17.0,0,0.00,,,0.00,HR_IXPWINDi_r2_v1.2.,2013-03-06 21:44:00,
2013-03-06 13:49:00,59.5,0.0,30.08,WNW,290,10.0,16.0,0,0.00,,,0.00,HR_IXPWINDi_r2_v1.2.,2013-03-06 21:49:00,
2013-03-06 13:55:00,59.3,0.0,30.08,WNW,296,11.0,16.0,0,0.00,,,0.00,HR_IXPWINDi_r2_v1.2.,2013-03-06 21:55:00,
2013-03-06 14:00:00,59.1,0.0,30.08,NW,325,8.0,15.0,0,0.00,,,0.00,HR_IXPWINDi_r2_v1.2.,2013-03-06 22:00:00,
2013-03-06 14:05:00,59.4,0.0,30.08,WNW,284,12.0,15.0,0,0.00,,,0.00,HR_IXPWINDi_r2_v1.2.,2013-03-06 22:05:00,
2013-03-06 14:10:00,59.6,0.0,30.08,NW,310,12.0,15.0,0,0.00,,,0.00,HR_IXPWINDi_r2_v1.2.,2013-03-06 22:10:00,
2013-03-06 14:15:00,59.8,0.0,30.08,West,277,10.0,13.0,0,0.00,,,0.00,HR_IXPWINDi_r2_v1.2.,2013-03-06 22:15:00,
2013-03-06 14:20:00,59.5,0.0,30.07,WNW,294,4.0,14.0,0,0.00,,,0.00,HR_IXPWINDi_r2_v1.2.,2013-03-06 22:20:00,
2013-03-06 14:25:00,59.8,0.0,30.07,WNW,292,8.0,15.0,0,0.00,,,0.00,HR_IXPWINDi_r2_v1.2.,2013-03-06 22:25:00,
2013-03-06 14:30:00,59.9,0.0,30.07,NW,317,7.0,15.0,0,0.00,,,0.00,HR_IXPWINDi_r2_v1.2.,2013-03-06 22:30:00,
2013-03-06 14:36:00,59.5,0.0,30.07,WNW,290,12.0,13.0,0,0.00,,,0.00,HR_IXPWINDi_r2_v1.2.,2013-03-06 22:36:00,
2013-03-06 14:41:00,59.7,0.0,30.07,West,268,11.0,12.0,0,0.00,,,0.00,HR_IXPWINDi_r2_v1.2.,2013-03-06 22:41:00,
2013-03-06 14:46:00,59.5,0.0,30.07,NW,317,9.0,13.0,0,0.00,,,0.00,HR_IXPWINDi_r2_v1.2.,2013-03-06 22:46:00,
2013-03-06 14:51:00,59.4,0.0,30.07,WNW,299,11.0,14.0,0,0.00,,,0.00,HR_IXPWINDi_r2_v1.2.,2013-03-06 22:51:00,
2013-03-06 14:56:00,59.6,0.0,30.06,WNW,302,5.0,14.0,0,0.00,,,0.00,HR_IXPWINDi_r2_v1.2.,2013-03-06 22:56:00,
2013-03-06 15:02:00,59.5,0.0,30.06,WNW,302,6.0,14.0,0,0.00,,,0.00,HR_IXPWINDi_r2_v1.2.,2013-03-06 23:02:00,
2013-03-06 15:07:00,59.3,0.0,30.06,WNW,286,11.0,14.0,0,0.00,,,0.00,HR_IXPWINDi_r2_v1.2.,2013-03-06 23:07:00,
2013-03-06 15:12:00,59.6,0.0,30.06,West,269,7.0,14.0,0,0.00,,,0.00,HR_IXPWINDi_r2_v1.2.,2013-03-06 23:12:00,
2013-03-06 15:18:00,59.3,0.0,30.06,NW,312,4.0,12.0,0,0.00,,,0.00,HR_IXPWINDi_r2_v1.2.,2013-03-06 23:18:00,
2013-03-06 15:23:00,59.5,0.0,30.06,WNW,285,9.0,12.0,0,0.00,,,0.00,HR_IXPWINDi_r2_v1.2.,2013-03-06 23:23:00,
2013-03-06 15:28:00,59.4,0.0,30.06,NW,304,8.0,13.0,0,0.00,,,0.00,HR_IXPWINDi_r2_v1.2.,2013-03-06 23:28:00,
2013-03-06 15:34:00,59.2,0.0,30.05,WNW,282,9.0,13.0,0,0.00,,,0.00,HR_IXPWINDi_r2_v1.2.,2013-03-06 23:34:00,
2013-03-06 15:39:00,59.0,0.0,30.05,WNW,292,5.0,13.0,0,0.00,,,0.00,HR_IXPWINDi_r2_v1.2.,2013-03-06 23:39:00,
2013-03-06 15:44:00,59.1,0.0,30.05,WNW,282,7.0,11.0,0,0.00,,,0.00,HR_IXPWINDi_r2_v1.2.,2013-03-06 23:44:00,
2013-03-06 15:49:00,59.0,0.0,30.05,West,277,4.0,13.0,0,0.00,,,0.00,HR_IXPWINDi_r2_v1.2.,2013-03-06 23:49:00,
2013-03-06 15:55:00,59.3,0.0,30.05,NW,309,11.0,13.0,0,0.00,,,0.00,HR_IXPWINDi_r2_v1.2.,2013-03-06 23:55:00,
2013-03-06 16:00:00,59.1,0.0,30.05,WNW,298,5.0,13.0,0,0.00,,,0.00,HR_IXPWINDi_r2_v1.2.,2013-03-07 00:00:00,
2013-03-06 16:05:00,59.0,0.0,30.05,WNW,299,8.0,13.0,0,0.00,,,0.00,HR_IXPWINDi_r2_v1.2.,2013-03-07 00:05:00,
2013-03-06 16:10:00,59.0,0.0,30.05,NW,323,7.0,12.0,0,0.00,,,0.00,HR_IXPWINDi_r2_v1.2.,2013-03-07 00:10:00,
2013-03-06 16:15:00,58.7,0.0,30.05,West,275,10.0,13.0,0,0.00,,,0.00,HR_IXPWINDi_r2_v1.2.,2013-03-07 00:15:00,
2013-03-06 16:20:00,58.6,0.0,30.05,WNW,292,9.0,13.0,0,0.00,,,0.00,HR_IXPWINDi_r2_v1.2.,2013-03-07 00:20:00,
2013-03-06 16:25:00,58.7,0.0,30.05,WNW,298,3.0,12.0,0,0.00,,,0.00,HR_IXPWINDi_r2_v1.2.,2013-03-07 00:25:00,
2013-03-06 16:31:00,58.6,0.0,30.05,West,274,7.0,12.0,0,0.00,,,0.00,HR_IXPWINDi_r2_v1.2.,2013-03-07 00:31:00,
2013-03-06 16:36:00,58.5,0.0,30.05,WNW,292,4.0,12.0,0,0.00,,,0.00,HR_IXPWINDi_r2_v1.2.,2013-03-07 00:36:00,
2013-03-06 16:41:00,58.5,0.0,30.05,WNW,284,7.0,11.0,0,0.00,,,0.00,HR_IXPWINDi_r2_v1.2.,2013-03-07 00:41:00,
2013-03-06 16:46:00,58.5,0.0,30.05,WNW,291,5.0,11.0,0,0.00,,,0.00,HR_IXPWINDi_r2_v1.2.,2013-03-07 00:46:00,
2013-03-06 16:52:00,58.3,0.0,30.05,WNW,298,7.0,11.0,0,0.00,,,0.00,HR_IXPWINDi_r2_v1.2.,2013-03-07 00:52:00,
2013-03-06 16:57:00,58.0,0.0,30.05,West,263,9.0,13.0,0,0.00,,,0.00,HR_IXPWINDi_r2_v1.2.,2013-03-07 00:57:00,
2013-03-06 17:03:00,58.0,0.0,30.05,WNW,282,6.0,13.0,0,0.00,,,0.00,HR_IXPWINDi_r2_v1.2.,2013-03-07 01:03:00,
2013-03-06 17:08:00,58.1,0.0,30.04,NW,319,9.0,11.0,0,0.00,,,0.00,HR_IXPWINDi_r2_v1.2.,2013-03-07 01:08:00,
2013-03-06 17:13:00,58.0,0.0,30.04,WNW,298,8.0,11.0,0,0.00,,,0.00,HR_IXPWINDi_r2_v1.2.,2013-03-07 01:13:00,
2013-03-06 17:18:00,57.8,0.0,30.04,NW,313,6.0,11.0,0,0.00,,,0.00,HR_IXPWINDi_r2_v1.2.,2013-03-07 01:18:00,
2013-03-06 17:23:00,57.7,0.0,30.04,NW,308,5.0,12.0,0,0.00,,,0.00,HR_IXPWINDi_r2_v1.2.,2013-03-07 01:23:00,
2013-03-06 17:28:00,57.5,0.0,30.04,NW,306,5.0,13.0,0,0.00,,,0.00,HR_IXPWINDi_r2_v1.2.,2013-03-07 01:28:00,
2013-03-06 17:33:00,57.3,0.0,30.04,NW,313,8.0,13.0,0,0.00,,,0.00,HR_IXPWINDi_r2_v1.2.,2013-03-07 01:33:00,
2013-03-06 17:38:00,57.2,0.0,30.05,NW,322,7.0,12.0,0,0.00,,,0.00,HR_IXPWINDi_r2_v1.2.,2013-03-07 01:38:00,
2013-03-06 17:44:00,57.0,0.0,30.05,WNW,294,6.0,14.0,0,0.00,,,0.00,HR_IXPWINDi_r2_v1.2.,2013-03-07 01:44:00,
2013-03-06 17:49:00,57.0,0.0,30.05,WNW,296,11.0,14.0,0,0.00,,,0.00,HR_IXPWINDi_r2_v1.2.,2013-03-07 01:49:00,
2013-03-06 17:54:00,56.9,0.0,30.05,WNW,284,13.0,13.0,0,0.00,,,0.00,HR_IXPWINDi_r2_v1.2.,2013-03-07 01:54:00,
2013-03-06 18:00:00,56.8,0.0,30.05,WNW,290,9.0,13.0,0,0.00,,,0.00,HR_IXPWINDi_r2_v1.2.,2013-03-07 02:00:00,
2013-03-06 18:05:00,56.7,0.0,30.05,NW,311,7.0,12.0,0,0.00,,,0.00,HR_IXPWINDi_r2_v1.2.,2013-03-07 02:05:00,
2013-03-06 18:10:00,56.7,0.0,30.05,WNW,292,4.0,11.0,0,0.00,,,0.00,HR_IXPWINDi_r2_v1.2.,2013-03-07 02:10:00,
2013-03-06 18:16:00,56.6,0.0,30.05,NW,304,9.0,11.0,0,0.00,,,0.00,HR_IXPWINDi_r2_v1.2.,2013-03-07 02:16:00,
2013-03-06 18:21:00,56.6,0.0,30.05,NNW,331,5.0,11.0,0,0.00,,,0.00,HR_IXPWINDi_r2_v1.2.,2013-03-07 02:21:00,
2013-03-06 18:26:00,56.6,0.0,30.06,WNW,302,7.0,10.0,0,0.00,,,0.00,HR_IXPWINDi_r2_v1.2.,2013-03-07 02:26:00,
2013-03-06 18:31:00,56.5,0.0,30.05,NW,323,3.0,9.0,0,0.00,,,0.00,HR_IXPWINDi_r2_v1.2.,2013-03-07 02:31:00,
2013-03-06 18:36:00,56.4,0.0,30.06,NW,320,5.0,10.0,0,0.00,,,0.00,HR_IXPWINDi_r2_v1.2.,2013-03-07 02:36:00,
2013-03-06 18:41:00,56.4,0.0,30.06,NW,323,3.0,10.0,0,0.00,,,0.00,HR_IXPWINDi_r2_v1.2.,2013-03-07 02:41:00,
2013-03-06 18:47:00,56.4,0.0,30.06,NW,318,3.0,9.0,0,0.00,,,0.00,HR_IXPWINDi_r2_v1.2.,2013-03-07 02:47:00,
2013-03-06 18:52:00,56.4,0.0,30.06,NNW,327,2.0,7.0,0,0.00,,,0.00,HR_IXPWINDi_r2_v1.2.,2013-03-07 02:52:00,
2013-03-06 18:57:00,56.3,0.0,30.06,NNW,330,6.0,8.0,0,0.00,,,0.00,HR_IXPWINDi_r2_v1.2.,2013-03-07 02:57:00,
2013-03-06 19:02:00,56.3,0.0,30.06,NW,315,4.0,8.0,0,0.00,,,0.00,HR_IXPWINDi_r2_v1.2.,2013-03-07 03:02:00,
2013-03-06 19:07:00,56.4,0.0,30.06,NW,320,5.0,8.0,0,0.00,,,0.00,HR_IXPWINDi_r2_v1.2.,2013-03-07 03:07:00,
2013-03-06 19:12:00,56.4,0.0,30.06,NW,321,3.0,8.0,0,0.00,,,0.00,HR_IXPWINDi_r2_v1.2.,2013-03-07 03:12:00,
2013-03-06 19:17:00,56.3,0.0,30.06,NW,321,4.0,6.0,0,0.00,,,0.00,HR_IXPWINDi_r2_v1.2.,2013-03-07 03:17:00,
2013-03-06 19:23:00,56.2,0.0,30.07,NW,321,4.0,6.0,0,0.00,,,0.00,HR_IXPWINDi_r2_v1.2.,2013-03-07 03:23:00,
2013-03-06 19:28:00,56.3,0.0,30.07,NW,321,2.0,6.0,0,0.00,,,0.00,HR_IXPWINDi_r2_v1.2.,2013-03-07 03:28:00,
2013-03-06 19:33:00,56.3,0.0,30.06,NNW,327,3.0,5.0,0,0.00,,,0.00,HR_IXPWINDi_r2_v1.2.,2013-03-07 03:33:00,
2013-03-06 19:38:00,56.3,0.0,30.06,NNW,328,5.0,6.0,0,0.00,,,0.00,HR_IXPWINDi_r2_v1.2.,2013-03-07 03:38:00,
2013-03-06 19:43:00,56.3,0.0,30.06,NW,326,5.0,6.0,0,0.00,,,0.00,HR_IXPWINDi_r2_v1.2.,2013-03-07 03:43:00,
2013-03-06 19:49:00,56.3,0.0,30.06,NW,321,1.0,7.0,0,0.00,,,0.00,HR_IXPWINDi_r2_v1.2.,2013-03-07 03:49:00,
2013-03-06 19:54:00,56.2,0.0,30.06,NW,321,1.0,6.0,0,0.00,,,0.00,HR_IXPWINDi_r2_v1.2.,2013-03-07 03:54:00,
2013-03-06 19:59:00,56.2,0.0,30.06,NW,321,1.0,5.0,0,0.00,,,0.00,HR_IXPWINDi_r2_v1.2.,2013-03-07 03:59:00,
2013-03-06 20:04:00,56.2,0.0,30.06,NW,321,0.0,5.0,0,0.00,,,0.00,HR_IXPWINDi_r2_v1.2.,2013-03-07 04:04:00,
2013-03-06 20:09:00,56.2,0.0,30.06,NW,321,1.0,4.0,0,0.00,,,0.00,HR_IXPWINDi_r2_v1.2.,2013-03-07 04:09:00,
2013-03-06 20:15:00,56.2,0.0,30.06,NNE,30,3.0,6.0,0,0.00,,,0.00,HR_IXPWINDi_r2_v1.2.,2013-03-07 04:15:00,
2013-03-06 20:20:00,56.2,0.0,30.06,NE,36,5.0,6.0,0,0.00,,,0.00,HR_IXPWINDi_r2_v1.2.,2013-03-07 04:20:00,
2013-03-06 20:25:00,56.2,0.0,30.06,NE,44,2.0,5.0,0,0.00,,,0.00,HR_IXPWINDi_r2_v1.2.,2013-03-07 04:25:00,
2013-03-06 20:30:00,56.3,0.0,30.06,NE,38,0.0,5.0,0,0.00,,,0.00,HR_IXPWINDi_r2_v1.2.,2013-03-07 04:30:00,
2013-03-06 20:35:00,56.3,0.0,30.06,NE,52,4.0,5.0,0,0.00,,,0.00,HR_IXPWINDi_r2_v1.2.,2013-03-07 04:35:00,
2013-03-06 20:41:00,56.3,0.0,30.06,NE,46,4.0,6.0,0,0.00,,,0.00,HR_IXPWINDi_r2_v1.2.,2013-03-07 04:41:00,
2013-03-06 20:46:00,56.3,0.0,30.06,NE,36,5.0,6.0,0,0.00,,,0.00,HR_IXPWINDi_r2_v1.2.,2013-03-07 04:46:00,
2013-03-06 20:51:00,56.3,0.0,30.06,NE,38,2.0,6.0,0,0.00,,,0.00,HR_IXPWINDi_r2_v1.2.,2013-03-07 04:51:00,
2013-03-06 20:56:00,56.1,0.0,30.06,NE,42,4.0,5.0,0,0.00,,,0.00,HR_IXPWINDi_r2_v1.2.,2013-03-07 04:56:00,
2013-03-06 21:00:00,56.1,0.0,30.06,NE,43,2.0,5.0,0,0.00,,,0.00,HR_IXPWINDi_r2_v1.2.,2013-03-07 05:00:00,
2013-03-06 21:05:00,56.0,0.0,30.06,NE,38,2.0,5.0,0,0.00,,,0.00,HR_IXPWINDi_r2_v1.2.,2013-03-07 05:05:00,
2013-03-06 21:10:00,56.0,0.0,30.06,NE,44,2.0,5.0,0,0.00,,,0.00,HR_IXPWINDi_r2_v1.2.,2013-03-07 05:10:00,
2013-03-06 21:15:00,56.1,0.0,30.06,NE,52,1.0,4.0,0,0.00,,,0.00,HR_IXPWINDi_r2_v1.2.,2013-03-07 05:15:00,
2013-03-06 21:20:00,56.0,0.0,30.06,NE,52,1.0,4.0,0,0.00,,,0.00,HR_IXPWINDi_r2_v1.2.,2013-03-07 05:20:00,
2013-03-06 21:25:00,56.0,0.0,30.06,NE,51,3.0,4.0,0,0.00,,,0.00,HR_IXPWINDi_r2_v1.2.,2013-03-07 05:25:00,
2013-03-06 21:31:00,55.9,0.0,30.06,NE,51,2.0,4.0,0,0.00,,,0.00,HR_IXPWINDi_r2_v1.2.,2013-03-07 05:31:00,
2013-03-06 21:36:00,55.9,0.0,30.06,NE,51,1.0,4.0,0,0.00,,,0.00,HR_IXPWINDi_r2_v1.2.,2013-03-07 05:36:00,
2013-03-06 21:41:00,55.8,0.0,30.06,NE,50,2.0,5.0,0,0.00,,,0.00,HR_IXPWINDi_r2_v1.2.,2013-03-07 05:41:00,
2013-03-06 21:46:00,55.7,0.0,30.05,NE,52,2.0,5.0,0,0.00,,,0.00,HR_IXPWINDi_r2_v1.2.,2013-03-07 05:46:00,
2013-03-06 21:51:00,55.7,0.0,30.06,NE,52,2.0,4.0,0,0.00,,,0.00,HR_IXPWINDi_r2_v1.2.,2013-03-07 05:51:00,
2013-03-06 21:56:00,55.7,0.0,30.05,NE,51,4.0,5.0,0,0.00,,,0.00,HR_IXPWINDi_r2_v1.2.,2013-03-07 05:56:00,
2013-03-06 22:01:00,55.8,0.0,30.05,NE,55,3.0,5.0,0,0.00,,,0.00,HR_IXPWINDi_r2_v1.2.,2013-03-07 06:01:00,
2013-03-06 22:06:00,55.8,0.0,30.05,ENE,69,3.0,5.0,0,0.00,,,0.00,HR_IXPWINDi_r2_v1.2.,2013-03-07 06:06:00,
2013-03-06 22:11:00,55.9,0.0,30.05,East,79,6.0,8.0,0,0.00,,,0.00,HR_IXPWINDi_r2_v1.2.,2013-03-07 06:11:00,
2013-03-06 22:17:00,55.9,0.0,30.05,East,79,5.0,8.0,0,0.00,,,0.00,HR_IXPWINDi_r2_v1.2.,2013-03-07 06:17:00,
2013-03-06 22:22:00,55.7,0.0,30.05,ENE,78,1.0,7.0,0,0.00,,,0.00,HR_IXPWINDi_r2_v1.2.,2013-03-07 06:22:00,
2013-03-06 22:27:00,55.5,0.0,30.05,ENE,78,1.0,5.0,0,0.00,,,0.00,HR_IXPWINDi_r2_v1.2.,2013-03-07 06:27:00,
2013-03-06 22:32:00,55.5,0.0,30.05,ENE,78,3.0,4.0,0,0.00,,,0.00,HR_IXPWINDi_r2_v1.2.,2013-03-07 06:32:00,
2013-03-06 22:37:00,55.5,0.0,30.05,ENE,78,4.0,5.0,0,0.00,,,0.00,HR_IXPWINDi_r2_v1.2.,2013-03-07 06:37:00,
2013-03-06 22:42:00,55.5,0.0,30.05,ENE,78,3.0,5.0,0,0.00,,,0.00,HR_IXPWINDi_r2_v1.2.,2013-03-07 06:42:00,
2013-03-06 22:48:00,55.5,0.0,30.05,ENE,78,3.0,5.0,0,0.00,,,0.00,HR_IXPWINDi_r2_v1.2.,2013-03-07 06:48:00,
2013-03-06 22:53:00,55.2,0.0,30.04,ENE,78,2.0,4.0,0,0.00,,,0.00,HR_IXPWINDi_r2_v1.2.,2013-03-07 06:53:00,
2013-03-06 22:58:00,55.2,0.0,30.04,ENE,78,2.0,4.0,0,0.00,,,0.00,HR_IXPWINDi_r2_v1.2.,2013-03-07 06:58:00,
2013-03-06 23:04:00,55.3,0.0,30.04,ENE,78,4.0,4.0,0,0.00,,,0.00,HR_IXPWINDi_r2_v1.2.,2013-03-07 07:04:00,
2013-03-06 23:09:00,55.3,0.0,30.04,East,80,5.0,6.0,0,0.00,,,0.00,HR_IXPWINDi_r2_v1.2.,2013-03-07 07:09:00,
2013-03-06 23:14:00,55.2,0.0,30.04,ESE,103,7.0,7.0,0,0.00,,,0.00,HR_IXPWINDi_r2_v1.2.,2013-03-07 07:14:00,
2013-03-06 23:19:00,54.9,0.0,30.04,ESE,105,5.0,7.0,0,0.00,,,0.00,HR_IXPWINDi_r2_v1.2.,2013-03-07 07:19:00,
2013-03-06 23:25:00,54.5,0.0,30.04,ESE,105,3.0,7.0,0,0.00,,,0.00,HR_IXPWINDi_r2_v1.2.,2013-03-07 07:25:00,
2013-03-06 23:30:00,54.4,0.0,30.04,ESE,105,3.0,7.0,0,0.00,,,0.00,HR_IXPWINDi_r2_v1.2.,2013-03-07 07:30:00,
2013-03-06 23:35:00,54.4,0.0,30.04,ESE,105,3.0,5.0,0,0.00,,,0.00,HR_IXPWINDi_r2_v1.2.,2013-03-07 07:35:00,
2013-03-06 23:40:00,54.4,0.0,30.04,ESE,105,2.0,5.0,0,0.00,,,0.00,HR_IXPWINDi_r2_v1.2.,2013-03-07 07:40:00,
2013-03-06 23:46:00,54.5,0.0,30.04,ESE,105,3.0,4.0,0,0.00,,,0.00,HR_IXPWINDi_r2_v1.2.,2013-03-07 07:46:00,
2013-03-06 23:51:00,54.5,0.0,30.04,ESE,105,2.0,4.0,0,0.00,,,0.00,HR_IXPWINDi_r2_v1.2.,2013-03-07 07:51:00,
2013-03-06 23:56:00,54.6,0.0,30.04,ESE,105,2.0,3.0,0,0.00,,,0.00,HR_IXPWINDi_r2_v1.2.,2013-03-07 07:56:00,